This is the latest recevied weather packets stored in our database for station/object SR6NWB-11. If no packets are shown the sender has not sent any weather packets the latest 10 day(s).
| Time | Temp. | Humidity | Pressure | Rain* | Wind** | Luminosity | Snow |
|---|---|---|---|---|---|---|---|
| 1777727901 | 20.56° C | 21% | 1026.2 hPa | 0 mm | - | - | - |
| 1777727421 | 20.56° C | 20% | 1026.2 hPa | 0 mm | - | - | - |
| 1777726881 | 20.56° C | 20% | 1026.3 hPa | 0 mm | - | - | - |
| 1777725261 | 21.11° C | 21% | 1026.6 hPa | 0 mm | - | - | - |
| 1777724716 | 21.11° C | 22% | 1026.6 hPa | 0 mm | - | - | - |
| 1777724146 | 20.56° C | 22% | 1026.7 hPa | 0 mm | - | - | - |
| 1777723656 | 21.11° C | 23% | 1026.8 hPa | 0 mm | - | - | - |
| 1777723171 | 21.11° C | 24% | 1026.9 hPa | 0 mm | - | - | - |
| 1777722091 | 20.56° C | 25% | 1027.1 hPa | 0 mm | - | - | - |
| 1777721531 | 20.56° C | 25% | 1027.1 hPa | 0 mm | - | - | - |
| 1777720966 | 20.56° C | 25% | 1027.3 hPa | 0 mm | - | - | - |
| 1777720396 | 20.56° C | 26% | 1027.3 hPa | 0 mm | - | - | - |
| 1777719856 | 20.56° C | 26% | 1027.4 hPa | 0 mm | - | - | - |
| 1777719271 | 20° C | 27% | 1027.4 hPa | 0 mm | - | - | - |
| 1777718744 | 20° C | 27% | 1027.5 hPa | 0 mm | - | - | - |
| 1777718206 | 19.44° C | 27% | 1027.5 hPa | 0 mm | - | - | - |
| 1777717676 | 19.44° C | 28% | 1027.6 hPa | 0 mm | - | - | - |
| 1777717171 | 19.44° C | 28% | 1027.7 hPa | 0 mm | - | - | - |
| 1777716631 | 18.89° C | 28% | 1027.7 hPa | 0 mm | - | - | - |
| 1777716146 | 18.89° C | 28% | 1027.9 hPa | 0 mm | - | - | - |
| 1777715611 | 18.33° C | 28% | 1027.9 hPa | 0 mm | - | - | - |
| 1777715031 | 18.33° C | 28% | 1028 hPa | 0 mm | - | - | - |
| 1777714525 | 18.33° C | 28% | 1028.1 hPa | 0 mm | - | - | - |
| 1777713978 | 17.78° C | 28% | 1028.3 hPa | 0 mm | - | - | - |
| 1777713386 | 17.78° C | 27% | 1028.2 hPa | 0 mm | - | - | - |
* Rain latest hour (hover to see other rain measurements)
** Current wind speed in m/s (hover to see current wind gust speed)